Bookmark and Share
Track history (hours):
 

Sommer S

More information available from US FCC via Universal Licensing System and Coast Guard Vessel Documentation Center.

Last reported at 2014-Apr-24 19:33 UTC. Time now 2014-Apr-24 20:02 UTC.
Position N 45°37' W 122°47'.

Length 25 m.

Type: Tug. MMSI: 367530080.

NotesDate/timePositionNaut miles runAvg speedWind from/ knotsBaromVisibWave heightAir tempDewpointWater temp
2014-Apr-24 19:33N 45°37' W 122°47'7 7.1
2014-Apr-24 18:33N 45°32' W 122°40'2 2.1
2014-Apr-24 17:33N 45°33' W 122°43'1 0.7
2014-Apr-24 16:30N 45°34' W 122°44'0 0.0
2014-Apr-24 15:22N 45°34' W 122°44'0 0.0
2014-Apr-24 14:27N 45°34' W 122°44'0 0.0
2014-Apr-24 12:18N 45°34' W 122°44'0 0.6
2014-Apr-24 11:33N 45°34' W 122°44'3 2.8
2014-Apr-24 10:33N 45°32' W 122°41'7 7.0
2014-Apr-24 09:33N 45°38' W 122°47'2 2.3
2014-Apr-24 08:34N 45°38' W 122°44'1 1.0
2014-Apr-24 07:33N 45°38' W 122°43'1 1.0
2014-Apr-24 06:33N 45°39' W 122°44'0 0.3
2014-Apr-24 05:14N 45°39' W 122°45'0 0.0
2014-Apr-24 04:33N 45°39' W 122°45'0 0.0
2014-Apr-24 03:33N 45°39' W 122°45'0 0.0
2014-Apr-24 02:33N 45°39' W 122°45'0 0.1
2014-Apr-24 01:33N 45°39' W 122°45'0 0.0
2014-Apr-24 00:33N 45°39' W 122°45'0 0.0
2014-Apr-23 23:33N 45°39' W 122°45'0 0.2
2014-Apr-23 22:25N 45°39' W 122°45'0 0.0
2014-Apr-23 21:33N 45°39' W 122°45'0 0.0
2014-Apr-23 20:34N 45°39' W 122°45'0 0.2
2014-Apr-23 19:16N 45°39' W 122°45'0 0.0
2014-Apr-23 18:33N 45°39' W 122°45'0 0.0
2014-Apr-23 17:33N 45°39' W 122°45'0 0.0
2014-Apr-23 16:33N 45°39' W 122°45'0 0.0
2014-Apr-23 15:33N 45°39' W 122°45'0 0.0
2014-Apr-23 14:33N 45°39' W 122°45'0 0.0
2014-Apr-23 13:33N 45°39' W 122°45'0 0.0
2014-Apr-23 12:33N 45°39' W 122°45'1 0.7
2014-Apr-23 11:34N 45°38' W 122°44'1 0.7
2014-Apr-23 10:33N 45°39' W 122°45'1 0.6
2014-Apr-23 09:33N 45°38' W 122°44'4 4.1
2014-Apr-23 08:31N 45°34' W 122°44'1 0.7
2014-Apr-23 07:34N 45°34' W 122°44'3 3.0
2014-Apr-23 06:33N 45°36' W 122°47'3 3.0
2014-Apr-23 05:33N 45°39' W 122°45'0 0.0
2014-Apr-23 04:13N 45°39' W 122°45'0 0.0
2014-Apr-23 03:34N 45°39' W 122°45'1 1.3
2014-Apr-23 02:33N 45°40' W 122°46'7 7.1
2014-Apr-23 01:33N 45°47' W 122°46'7 6.8
2014-Apr-23 00:34N 45°54' W 122°48'7 6.7
2014-Apr-22 23:33N 45°60' W 122°51'6 6.4
2014-Apr-22 22:33N 46°05' W 122°56'1 0.9
2014-Apr-22 21:33N 46°06' W 122°57'0 0.0
2014-Apr-22 20:33N 46°06' W 122°57'0 0.0
2014-Apr-22 19:14N 46°06' W 122°57'0 0.1
2014-Apr-22 18:33N 46°06' W 122°57'0 0.4
2014-Apr-22 17:33N 46°06' W 122°56'0 0.1
2014-Apr-22 16:33N 46°06' W 122°56'1211.6
2014-Apr-22 15:30N 45°55' W 122°48'1612.4
2014-Apr-22 14:11N 45°39' W 122°46'5 7.1
2014-Apr-22 13:33N 45°34' W 122°44'1 1.1
2014-Apr-22 12:34N 45°34' W 122°43'3 2.6
2014-Apr-22 11:34N 45°32' W 122°40'7 7.1
2014-Apr-22 10:34N 45°37' W 122°47'2 2.3
2014-Apr-22 09:33N 45°39' W 122°45'0 0.0
2014-Apr-22 08:34N 45°39' W 122°45'0 0.0
2014-Apr-22 07:33N 45°39' W 122°45'0 0.0
2014-Apr-22 06:33N 45°39' W 122°45'0 0.0
2014-Apr-22 05:34N 45°39' W 122°45'0 0.0
2014-Apr-22 04:33N 45°39' W 122°45'0 0.3
2014-Apr-22 03:33N 45°39' W 122°45'4 3.9
2014-Apr-22 02:33N 45°35' W 122°45'4 4.2
2014-Apr-22 01:33N 45°32' W 122°41'0 0.1
2014-Apr-22 00:34N 45°32' W 122°41'1 1.4
2014-Apr-21 23:34N 45°33' W 122°42'1 1.3
2014-Apr-21 22:33N 45°32' W 122°41'3 2.5
2014-Apr-21 21:33N 45°34' W 122°44'0 0.1
2014-Apr-21 20:33N 45°34' W 122°44'0 0.0
2014-Apr-21 19:33N 45°34' W 122°44'0 0.0
2014-Apr-21 18:26N 45°34' W 122°44'0 0.0
2014-Apr-21 17:20N 45°34' W 122°44'5 6.6
2014-Apr-21 16:33N 45°38' W 122°47'2 1.9
2014-Apr-21 15:33N 45°38' W 122°44'1 0.7
2014-Apr-21 14:33N 45°39' W 122°45'0 0.0
2014-Apr-21 13:33N 45°39' W 122°45'0 0.1
2014-Apr-21 12:33N 45°39' W 122°45'5 5.1
2014-Apr-21 11:34N 45°34' W 122°44'5 5.0
2014-Apr-21 10:33N 45°38' W 122°47'2 1.8
2014-Apr-21 09:33N 45°39' W 122°45'0 0.0
2014-Apr-21 08:33N 45°39' W 122°45'0 0.0
2014-Apr-21 07:34N 45°39' W 122°45'0 0.0
2014-Apr-21 06:33N 45°39' W 122°45'0 0.0
2014-Apr-21 05:33N 45°39' W 122°45'1 1.4
2014-Apr-21 04:33N 45°38' W 122°47'1 1.1
2014-Apr-21 03:34N 45°39' W 122°45'1 1.1
2014-Apr-21 02:34N 45°38' W 122°44'1 1.1
2014-Apr-21 01:33N 45°39' W 122°45'0 0.2
2014-Apr-21 00:33N 45°39' W 122°45'4 4.1
2014-Apr-20 23:34N 45°35' W 122°45'2 1.6
2014-Apr-20 22:33N 45°36' W 122°46'3 3.2
2014-Apr-20 21:34N 45°39' W 122°45'0 0.0
2014-Apr-20 20:33N 45°39' W 122°45'0 0.0
2014-Apr-20 19:33N 45°39' W 122°45'0 0.0
2014-Apr-20 18:32N 45°39' W 122°45'0 0.0
2014-Apr-20 17:33N 45°39' W 122°45'0 0.0
2014-Apr-20 16:33N 45°39' W 122°45'0 0.0
2014-Apr-20 15:33N 45°39' W 122°45'0 0.0
2014-Apr-20 14:34N 45°39' W 122°45'0 0.0
2014-Apr-20 13:33N 45°39' W 122°45'0 0.0
2014-Apr-20 12:33N 45°39' W 122°45'0 0.0
2014-Apr-20 11:33N 45°39' W 122°45'0 0.0
2014-Apr-20 10:33N 45°39' W 122°45'0 0.0
2014-Apr-20 09:33N 45°39' W 122°45'0 0.0
2014-Apr-20 08:33N 45°39' W 122°45'0 0.0
2014-Apr-20 07:33N 45°39' W 122°45'0 0.0
2014-Apr-20 06:33N 45°39' W 122°45'0 0.0
2014-Apr-20 05:33N 45°39' W 122°45'1 0.7
2014-Apr-20 04:34N 45°39' W 122°44'3 3.4
2014-Apr-20 03:33N 45°36' W 122°47'1 1.1
2014-Apr-20 02:33N 45°37' W 122°47'2 2.4
2014-Apr-20 01:34N 45°39' W 122°45'1 0.7
2014-Apr-20 00:33N 45°39' W 122°45'6 5.5
2014-Apr-19 23:33N 45°34' W 122°44'0 0.5
2014-Apr-19 22:33N 45°34' W 122°44'0 0.0
2014-Apr-19 21:34N 45°34' W 122°44'0 0.1
2014-Apr-19 20:33N 45°34' W 122°44'3 2.9
2014-Apr-19 19:33N 45°36' W 122°47'1 0.9
2014-Apr-19 18:33N 45°36' W 122°47'1 0.6
2014-Apr-19 17:34N 45°36' W 122°47'4 4.4
2014-Apr-19 16:34N 45°33' W 122°42'4 3.9
2014-Apr-19 15:33N 45°36' W 122°46'3 3.3
2014-Apr-19 14:33N 45°39' W 122°45'2 1.6
2014-Apr-19 13:33N 45°38' W 122°43'2 1.9
2014-Apr-19 12:34N 45°39' W 122°45'0 0.0
2014-Apr-19 11:33N 45°39' W 122°45'0 0.0
2014-Apr-19 10:33N 45°39' W 122°45'0 0.0
2014-Apr-19 09:33N 45°39' W 122°45'0 0.0
2014-Apr-19 08:33N 45°39' W 122°45'0 0.0
2014-Apr-19 07:33N 45°39' W 122°45'0 0.0
2014-Apr-19 06:33N 45°39' W 122°45'0 0.0
2014-Apr-19 05:33N 45°39' W 122°45'2 1.9
2014-Apr-19 04:33N 45°38' W 122°43'0 0.4
2014-Apr-19 03:33N 45°38' W 122°43'1 1.5
2014-Apr-19 02:33N 45°39' W 122°45'0 0.1
2014-Apr-19 01:33N 45°39' W 122°45'1 1.2
2014-Apr-19 00:33N 45°38' W 122°47'0 0.0
2014-Apr-18 23:33N 45°38' W 122°47'1 1.2
2014-Apr-18 22:33N 45°39' W 122°45'0 0.2
2014-Apr-18 21:33N 45°39' W 122°45'1 1.2
2014-Apr-18 20:33N 45°38' W 122°43'1 1.0
2014-Apr-18 19:31N 45°38' W 122°42'2 2.4
2014-Apr-18 18:32N 45°39' W 122°45'1 0.8
2014-Apr-18 17:33N 45°38' W 122°44'1 0.6
2014-Apr-18 16:33N 45°39' W 122°45'0 0.0
2014-Apr-18 15:34N 45°39' W 122°45'0 0.0
2014-Apr-18 14:33N 45°39' W 122°45'0 0.0
2014-Apr-18 13:33N 45°39' W 122°45'0 0.0
2014-Apr-18 12:33N 45°39' W 122°45'0 0.0
2014-Apr-18 11:33N 45°39' W 122°45'0 0.0
2014-Apr-18 10:33N 45°39' W 122°45'0 0.0
2014-Apr-18 09:33N 45°39' W 122°45'0 0.0
2014-Apr-18 08:33N 45°39' W 122°45'0 0.0
2014-Apr-18 07:33N 45°39' W 122°45'0 0.0
2014-Apr-18 06:33N 45°39' W 122°45'0 0.2
2014-Apr-18 05:33N 45°39' W 122°45'0 0.2
2014-Apr-18 04:33N 45°39' W 122°45'1 1.2
2014-Apr-18 03:33N 45°38' W 122°43'0 0.3
2014-Apr-18 02:33N 45°39' W 122°43'4 3.6
2014-Apr-18 01:33N 45°41' W 122°46'9 9.0
2014-Apr-18 00:33N 45°50' W 122°47'9 8.5
2014-Apr-17 23:33N 45°59' W 122°50'8 8.1
2014-Apr-17 22:33N 46°06' W 122°56'1 0.6
2014-Apr-17 21:33N 46°06' W 122°57'0 0.4
2014-Apr-17 20:33N 46°06' W 122°57'1 1.1
2014-Apr-17 19:33N 46°05' W 122°56'0 0.0
2014-Apr-17 18:33N 46°05' W 122°56'0 0.0
2014-Apr-17 17:33N 46°05' W 122°56'0 0.0
2014-Apr-17 16:33N 46°05' W 122°56'0 0.0
2014-Apr-17 15:33N 46°05' W 122°56'0 0.0
2014-Apr-17 14:34N 46°05' W 122°56'4 3.6
2014-Apr-17 13:33N 46°03' W 122°53'1 0.9
2014-Apr-17 12:33N 46°02' W 122°53'0 0.3
2014-Apr-17 11:33N 46°02' W 122°52'0 0.1
2014-Apr-17 10:34N 46°02' W 122°52'0 0.0
2014-Apr-17 09:33N 46°02' W 122°52'2 2.4
2014-Apr-17 08:33N 46°04' W 122°53'2 2.3
2014-Apr-17 07:34N 46°05' W 122°56'0 0.0
2014-Apr-17 06:32N 46°05' W 122°56'0 0.0
2014-Apr-17 05:33N 46°05' W 122°56'1 1.0
2014-Apr-17 04:33N 46°06' W 122°57'2 1.7
2014-Apr-17 03:33N 46°07' W 122°59'2 2.2
2014-Apr-17 02:33N 46°06' W 122°56'1 0.5
2014-Apr-17 01:33N 46°05' W 122°56'0 0.0
2014-Apr-17 00:33N 46°05' W 122°56'0 0.0
2014-Apr-16 23:34N 46°05' W 122°56'1 1.0
2014-Apr-16 22:33N 46°06' W 122°57'1 1.0
2014-Apr-16 21:33N 46°06' W 122°56'0 0.1
2014-Apr-16 20:33N 46°05' W 122°56'0 0.0
2014-Apr-16 19:33N 46°05' W 122°56'0 0.0
2014-Apr-16 18:33N 46°05' W 122°56'0 0.0
2014-Apr-16 17:33N 46°05' W 122°56'0 0.0
2014-Apr-16 16:33N 46°05' W 122°56'0 0.0
2014-Apr-16 15:33N 46°05' W 122°56'0 0.0
2014-Apr-16 14:33N 46°05' W 122°56'1 0.6
2014-Apr-16 13:33N 46°06' W 122°56'1 0.6
2014-Apr-16 12:33N 46°05' W 122°56'0 0.0
2014-Apr-16 11:33N 46°05' W 122°56'0 0.0
2014-Apr-16 10:34N 46°05' W 122°56'0 0.0
2014-Apr-16 09:33N 46°05' W 122°56'0 0.0
2014-Apr-16 08:33N 46°05' W 122°56'0 0.0
2014-Apr-16 07:33N 46°05' W 122°56'0 0.0
2014-Apr-16 06:33N 46°05' W 122°56'0 0.0
2014-Apr-16 05:33N 46°05' W 122°56'1 0.8
2014-Apr-16 04:33N 46°06' W 122°57'0 0.3
2014-Apr-16 03:33N 46°06' W 122°56'0 0.2
2014-Apr-16 02:33N 46°06' W 122°57'4 4.4
2014-Apr-16 01:33N 46°03' W 122°53'0 0.1
2014-Apr-16 00:33N 46°03' W 122°53'3 2.8
2014-Apr-15 23:33N 46°05' W 122°55'3 2.9
2014-Apr-15 22:33N 46°07' W 122°58'0 0.2
2014-Apr-15 21:33N 46°07' W 122°58'1 1.3
2014-Apr-15 20:33N 46°06' W 122°57'1 0.9
2014-Apr-15 19:33N 46°05' W 122°56'0 0.0
2014-Apr-15 18:33N 46°05' W 122°56'0 0.0
2014-Apr-15 17:33N 46°05' W 122°56'0 0.0
2014-Apr-15 16:33N 46°05' W 122°56'0 0.0
2014-Apr-15 15:33N 46°05' W 122°56'1 0.5
2014-Apr-15 14:33N 46°06' W 122°56'1 0.4
2014-Apr-15 12:34N 46°06' W 122°57'1 0.6
2014-Apr-15 11:34N 46°06' W 122°57'1 1.1
2014-Apr-15 10:34N 46°05' W 122°55'0 0.0
2014-Apr-15 09:34N 46°05' W 122°55'0 0.0
2014-Apr-15 08:34N 46°05' W 122°55'0 0.0
2014-Apr-15 07:34N 46°05' W 122°55'0 0.0
2014-Apr-15 06:34N 46°05' W 122°55'0 0.0
2014-Apr-15 05:33N 46°05' W 122°55'4 2.0
2014-Apr-15 03:34N 46°02' W 122°53'0 0.4
2014-Apr-15 02:34N 46°02' W 122°52'0 0.1
2014-Apr-15 01:34N 46°02' W 122°52'0 0.0
2014-Apr-15 00:34N 46°02' W 122°52'3 2.9
2014-Apr-14 23:34N 46°04' W 122°54'1110.6
2014-Apr-14 22:34N 46°11' W 123°06'3 3.4
2014-Apr-14 21:33N 46°11' W 123°11'1010.3
2014-Apr-14 20:32N 46°06' W 122°58'1 0.9
2014-Apr-14 19:34N 46°06' W 122°56'  

Dump ship's entire track history

sailing weather and tide predictions

Sommer S — WDG3830 — position and weather